GW7938 Weather Reports


time (UTC)temp
C
wind
direction
speed
KPH
gust
KPH
rain 1hr
cm
rain 24hr
cm
rain mn
cm
humidity
%
barometer
mb
20260904212035 15 230 4.8 14.5 0.00 0.13 0.13 78 1018.7
20260904211033 15 237 4.8 12.9 0.00 0.13 0.13 77 1018.7
20260904210031 15 215 8.0 19.3 0.00 0.13 0.13 77 1018.8
20260904205029 15 228 6.4 17.7 0.00 0.13 0.13 76 1018.7
20260904204027 15 216 6.4 12.9 0.00 0.13 0.13 76 1018.6
20260904203026 15 220 6.4 14.5 0.00 0.13 0.13 76 1018.6
20260904202044 15 228 4.8 14.5 0.00 0.13 0.13 75 1018.5
20260904201022 15 222 4.8 11.3 0.00 0.13 0.13 75 1018.4
20260904200020 15 228 4.8 9.7 0.00 0.13 0.13 75 1018.4
20260904195019 15 245 1.6 6.4 0.00 0.13 0.13 75 1018.4
20260904194017 16 235 3.2 8.0 0.00 0.13 0.13 75 1018.4
20260904193058 16 240 3.2 8.0 0.00 0.13 0.13 74 1018.1
20260904192053 16 232 3.2 9.7 0.00 0.13 0.13 74 1018.0
20260904191031 16 244 3.2 8.0 0.00 0.13 0.13 73 1017.8
20260904190029 16 236 3.2 9.7 0.00 0.13 0.13 72 1017.5
20260904185027 16 230 3.2 9.7 0.00 0.13 0.13 71 1017.6
20260904184025 17 249 6.4 16.1 0.00 0.13 0.13 71 1017.5
20260904183044 17 243 4.8 11.3 0.00 0.13 0.13 70 1017.3
20260904182022 17 235 3.2 11.3 0.00 0.13 0.13 69 1017.3
20260904181020 17 247 6.4 12.9 0.00 0.13 0.13 68 1017.1
20260904180039 17 259 4.8 12.9 0.00 0.13 0.13 67 1017.1
20260904175016 17 249 8.0 17.7 0.00 0.13 0.13 65 1017.0
20260904174034 18 250 8.0 20.9 0.00 0.13 0.13 64 1016.9
20260904173033 18 249 6.4 19.3 0.00 0.13 0.13 66 1016.9
20260904172031 18 253 8.0 20.9 0.00 0.13 0.13 66 1016.8
20260904171049 18 242 4.8 22.5 0.00 0.13 0.13 66 1016.7
20260904170027 18 251 4.8 14.5 0.00 0.13 0.13 66 1016.4
20260904165025 18 258 6.4 16.1 0.00 0.13 0.13 65 1016.3
20260904164043 18 252 6.4 16.1 0.00 0.13 0.13 65 1016.2
20260904163021 18 244 6.4 16.1 0.00 0.13 0.13 65 1016.1
20260904162019 18 246 8.0 16.1 0.00 0.13 0.13 65 1016.1
20260904161018 18 246 4.8 12.9 0.00 0.13 0.13 66 1016.0
20260904160016 18 238 8.0 20.9 0.00 0.13 0.13 66 1016.0
20260904155034 18 236 8.0 17.7 0.00 0.13 0.13 66 1015.9
20260904154032 18 239 6.4 16.1 0.00 0.13 0.13 66 1016.0
20260904153030 18 241 4.8 14.5 0.00 0.13 0.13 65 1015.9
20260904152029 18 247 6.4 20.9 0.00 0.13 0.13 65 1016.0
20260904151027 19 233 6.4 16.1 0.00 0.13 0.13 64 1015.9
20260904150025 19 241 8.0 14.5 0.00 0.13 0.13 63 1015.9
20260904145023 19 242 8.0 19.3 0.00 0.13 0.13 63 1015.9
20260904144021 19 237 6.4 20.9 0.00 0.13 0.13 63 1015.7
20260904143019 19 238 8.0 19.3 0.00 0.13 0.13 62 1015.5
20260904142018 19 221 9.7 24.1 0.00 0.13 0.13 62 1015.5
20260904141035 19 231 8.0 17.7 0.00 0.13 0.13 62 1015.5
20260904140034 19 238 6.4 12.9 0.00 0.13 0.13 62 1015.5
20260904135113 20 243 6.4 12.9 0.00 0.13 0.13 62 1015.5
20260904134030 20 246 9.7 20.9 0.00 0.13 0.13 60 1015.2
20260904133029 20 252 8.0 16.1 0.00 0.13 0.13 63 1015.2
20260904132027 19 250 8.0 17.7 0.00 0.13 0.13 63 1015.1
20260904131025 19 253 6.4 19.3 0.00 0.13 0.13 64 1015.2
20260904130023 19 259 9.7 24.1 0.00 0.13 0.13 62 1015.1
20260904125021 19 246 9.7 24.1 0.00 0.13 0.13 63 1015.0
20260904124019 19 246 8.0 17.7 0.00 0.13 0.13 64 1015.0
20260904123017 19 252 8.0 22.5 0.00 0.13 0.13 64 1014.9
20260904122015 19 260 6.4 16.1 0.00 0.13 0.13 63 1014.7
20260904121034 19 249 4.8 11.3 0.00 0.13 0.13 64 1014.6
20260904120032 19 250 6.4 12.9 0.00 0.13 0.13 64 1014.5
20260904115030 19 253 8.0 16.1 0.00 0.13 0.13 66 1014.3
20260904114028 18 255 4.8 12.9 0.00 0.13 0.13 69 1014.1
20260904113026 18 250 4.8 9.7 0.00 0.13 0.13 73 1014.1
20260904112024 18 256 6.4 16.1 0.00 0.13 0.13 73 1014.3
20260904111022 18 256 4.8 12.9 0.00 0.13 0.13 74 1014.1
20260904110020 18 254 4.8 11.3 0.00 0.13 0.13 73 1013.9
20260904105019 18 280 3.2 9.7 0.00 0.13 0.13 75 1013.7
20260904104037 18 269 3.2 14.5 0.00 0.13 0.13 78 1013.7
20260904103016 17 252 6.4 14.5 0.00 0.13 0.13 84 1013.6
20260904102034 17 252 4.8 12.9 0.00 0.13 0.13 84 1013.5
20260904101032 17 227 3.2 8.0 0.00 0.13 0.13 86 1013.4
20260904100030 17 215 8.0 19.3 0.00 0.13 0.13 85 1013.3
20260904095028 17 237 6.4 17.7 0.00 0.13 0.13 86 1013.3
20260904094026 17 239 6.4 14.5 0.00 0.13 0.13 86 1013.3
20260904093024 17 232 4.8 11.3 0.00 0.13 0.13 87 1013.0
20260904092022 18 242 6.4 16.1 0.00 0.13 0.13 86 1012.9
20260904091020 17 240 6.4 11.3 0.00 0.13 0.13 88 1012.6
20260904090018 17 224 6.4 17.7 0.00 0.13 0.13 89 1012.5
20260904085017 18 245 3.2 9.7 0.03 0.13 0.13 88 1012.5
20260904084035 17 260 4.8 11.3 0.03 0.13 0.13 88 1012.4
20260904083033 17 253 8.0 24.1 0.03 0.13 0.13 89 1012.7
20260904082031 17 242 6.4 16.1 0.03 0.13 0.13 90 1012.5
20260904081029 17 245 6.4 16.1 0.03 0.10 0.10 91 1012.5
20260904080108 17 239 6.4 16.1 0.03 0.10 0.10 91 1012.1
20260904075026 17 241 6.4 14.5 0.00 0.10 0.10 92 1012.1
20260904074024 17 228 4.8 11.3 0.03 0.10 0.10 92 1011.8
20260904073022 17 248 6.4 16.1 0.03 0.10 0.10 92 1011.7
20260904072020 17 231 6.4 17.7 0.03 0.10 0.10 92 1011.4
20260904071038 17 226 6.4 14.5 0.03 0.10 0.10 94 1011.3
20260904070016 17 245 4.8 12.9 0.03 0.10 0.10 94 1011.5
20260904065034 17 240 6.4 17.7 0.03 0.10 0.10 94 1011.4
20260904064033 17 236 4.8 17.7 0.03 0.08 0.08 94 1011.2
20260904063031 17 232 6.4 17.7 0.03 0.08 0.08 94 1011.2
20260904062029 17 236 8.0 16.1 0.05 0.08 0.08 93 1010.8
20260904061027 18 249 6.4 12.9 0.05 0.08 0.08 93 1010.8
20260904060025 18 244 6.4 19.3 0.05 0.05 0.05 93 1010.7
20260904055023 18 253 4.8 11.3 0.05 0.05 0.05 93 1010.4
20260904054021 18 251 6.4 14.5 0.05 0.05 0.05 94 1010.2
20260904053020 19 234 9.7 27.4 0.05 0.05 0.05 95 1009.8
20260904052018 19 221 17.7 30.6 0.00 0.03 0.03 94 1009.3
20260904051016 19 215 12.9 27.4 0.00 0.03 0.03 94 1009.4
20260904050034 19 215 14.5 33.8 0.00 0.03 0.03 94 1009.5
20260904045053 19 214 17.7 33.8 0.00 0.03 0.03 94 1009.5
20260904044030 19 216 11.3 22.5 0.00 0.03 0.03 95 1009.5
20260904043029 19 221 11.3 25.7 0.00 0.03 0.03 95 1009.6
20260904042047 19 221 14.5 32.2 0.03 0.03 0.03 94 1009.5
20260904041025 19 209 17.7 32.2 0.03 0.03 0.03 94 1009.6
20260904040023 19 217 11.3 40.2 0.03 0.03 0.03 94 1009.6
20260904035021 19 194 9.7 24.1 0.00 0.00 0.00 94 1009.8
20260904034020 19 211 14.5 25.7 0.00 0.00 0.00 94 1009.7
20260904033017 19 196 14.5 38.6 0.00 0.00 0.00 93 1009.9
20260904032036 20 201 12.9 25.7 0.00 0.00 0.00 92 1010.1
20260904031034 20 205 14.5 33.8 0.00 0.00 0.00 91 1010.0
20260904030052 20 208 12.9 24.1 0.00 0.00 0.00 90 1010.1
20260904025030 20 211 16.1 33.8 0.00 0.00 0.00 88 1010.2
20260904024028 20 221 16.1 33.8 0.00 0.00 0.00 87 1010.2
20260904023026 20 203 14.5 27.4 0.00 0.00 0.00 88 1010.3
20260904022044 20 201 12.9 40.2 0.00 0.00 0.00 88 1010.4
20260904021023 20 206 14.5 27.4 0.00 0.00 0.00 88 1010.7
20260904020041 20 209 14.5 30.6 0.00 0.00 0.00 89 1010.9
20260904015019 20 205 11.3 27.4 0.00 0.00 0.00 89 1011.0
20260904014037 19 186 11.3 29.0 0.00 0.00 0.00 89 1011.0
20260904013015 19 185 12.9 27.4 0.00 0.00 0.00 89 1011.1
20260904012033 19 182 14.5 29.0 0.00 0.00 0.00 88 1011.2
20260904011032 19 191 11.3 27.4 0.00 0.00 0.00 89 1011.2
20260904010030 19 182 11.3 24.1 0.00 0.00 0.00 88 1011.5
20260904005028 19 191 11.3 24.1 0.00 0.00 0.00 87 1011.4
20260904004026 19 171 12.9 27.4 0.00 0.00 0.00 87 1011.6
20260904003024 19 180 14.5 25.7 0.00 0.00 0.00 86 1011.6
20260904002042 19 173 12.9 27.4 0.00 0.00 0.00 86 1011.8
20260904001021 19 170 8.0 17.7 0.00 0.00 0.00 86 1012.1
20260904000019 19 188 8.0 20.9 0.00 0.00 0.00 86 1012.1
20260903235017 19 186 9.7 16.1 0.00 0.00 0.00 85 1012.1
20260903234035 19 177 9.7 22.5 0.00 0.00 0.00 86 1012.3
20260903233033 19 192 9.7 22.5 0.00 0.00 0.00 86 1012.7
20260903232052 19 181 8.0 19.3 0.00 0.00 0.00 87 1013.0
20260903231029 18 178 11.3 22.5 0.00 0.00 0.00 87 1013.2
20260903230027 18 173 8.0 14.5 0.00 0.00 0.00 87 1013.2
20260903225026 18 173 9.7 19.3 0.00 0.00 0.00 88 1013.4
20260903224024 18 177 11.3 20.9 0.00 0.00 0.00 88 1013.4
20260903223042 18 175 6.4 16.1 0.00 0.00 0.00 89 1013.9
20260903222020 18 170 11.3 20.9 0.00 0.00 0.00 89 1013.9
20260903221019 18 174 12.9 25.7 0.00 0.00 0.00 90 1014.1
20260903220036 18 181 12.9 27.4 0.00 0.00 0.00 90 1014.2
20260903215055 18 189 11.3 25.7 0.00 0.00 0.00 91 1014.2
20260903214033 18 202 11.3 20.9 0.00 0.00 0.00 89 1014.2
20260903213031 18 196 9.7 24.1 0.00 0.00 0.00 87 1014.5